Brooksville, FL

9:11 PM EDT on May 20, 2018 (GMT -0400)
Hernando County

Weather History for KBKV - July, 2013

Change the Weather History Date:

Friday, July 19, 2013

  Actual Average Record
Temperature  
Mean Temperature 78 °F -  
Max Temperature 84 °F 87 °F 95 °F (2006)
Min Temperature 72 °F 69 °F 62 °F (2011)
Cooling Degree Days 14    
Growing Degree Days 28 (Base 50)    
Moisture  
Dew Point 73 °F    
Average Humidity 92    
Maximum Humidity 100    
Minimum Humidity 72    
Precipitation  
Precipitation 1.05 in - - ()
Sea Level Pressure  
Sea Level Pressure 30.11 in    
Wind  
Wind Speed 3 mph (SSE)    
Max Wind Speed 17 mph    
Max Gust Speed 26 mph    
Visibility 8 miles    
Events Fog , Rain    
Averages and records for this station are not official NWS values.
T = Trace of Precipitation, MM = Missing Value Source: NWS Daily Summary

Daily Weather History Graph

Daily Weather History Graph

Search for Another Location

Airport or City:

Astronomy

Jul. 19, 2013 Rise Set
Actual Time 6:44 AM EDT 8:27 PM EDT
Civil Twilight 6:18 AM EDT 8:53 PM EDT
Nautical Twilight 5:46 AM EDT 9:25 PM EDT
Astronomical Twilight 5:13 AM EDT 9:58 PM EDT
Moon 5:29 PM EDT (7/19) 3:23 AM EDT (7/19)
Length of Visible Light 14h 35m
Length of Day
13h 43m
Waxing Gibbous, 86% of the Moon is Illuminated
Jul 19
Waxing Gibbous
Jul 22
Full
Jul 29
Last Quarter
Aug 6
New
Aug 14
First Quarter

Hourly Weather History & Observations

Time (EDT) Temp. Heat Index Dew Point Humidity Pressure Visibility Wind Dir Wind Speed Gust Speed Precip Events Conditions
12:11 AM 73.4 °F - 71.6 °F 94% 30.12 in 10.0 mi East 3.5 mph - N/A   Mostly Cloudy
12:20 AM 73.4 °F - 71.6 °F 94% 30.12 in 10.0 mi Calm Calm - N/A   Mostly Cloudy
12:27 AM 73.4 °F - 71.6 °F 94% 30.12 in 10.0 mi Calm Calm - N/A   Mostly Cloudy
12:53 AM 73.9 °F - 73.0 °F 97% 30.12 in 10.0 mi Calm Calm - N/A   Overcast
1:53 AM 73.9 °F - 72.0 °F 93% 30.11 in 10.0 mi ENE 3.5 mph - N/A   Mostly Cloudy
2:53 AM 73.9 °F - 73.0 °F 97% 30.10 in 8.0 mi Calm Calm - N/A   Scattered Clouds
3:53 AM 73.0 °F - 72.0 °F 96% 30.09 in 7.0 mi Calm Calm - 0.00 in   Mostly Cloudy
4:01 AM 73.4 °F - 73.4 °F 100% 30.10 in 8.0 mi SE 3.5 mph - 0.00 in Rain Light Rain
4:43 AM 73.4 °F - 73.4 °F 100% 30.10 in 8.0 mi Calm Calm - 0.00 in Rain Light Rain
4:53 AM 73.0 °F - 72.0 °F 96% 30.09 in 8.0 mi SE 3.5 mph - 0.00 in Rain Light Rain
5:43 AM 73.4 °F - 71.6 °F 94% 30.09 in 8.0 mi Calm Calm - 0.00 in   Partly Cloudy
5:53 AM 73.0 °F - 72.0 °F 96% 30.09 in 7.0 mi Calm Calm - 0.00 in   Partly Cloudy
6:53 AM 73.0 °F - 72.0 °F 96% 30.09 in 10.0 mi SE 3.5 mph - N/A   Partly Cloudy
7:53 AM 73.9 °F - 72.0 °F 93% 30.12 in 10.0 mi SE 5.8 mph - N/A   Mostly Cloudy
8:53 AM 75.9 °F - 72.0 °F 87% 30.13 in 10.0 mi SSE 6.9 mph - N/A   Mostly Cloudy
9:53 AM 77.0 °F - 71.1 °F 82% 30.15 in 10.0 mi SSE 4.6 mph - N/A   Mostly Cloudy
10:53 AM 79.0 °F - 72.0 °F 79% 30.14 in 10.0 mi South 3.5 mph - N/A   Clear
11:53 AM 82.0 °F 87.9 °F 73.9 °F 76% 30.14 in 10.0 mi South 3.5 mph - N/A   Clear
12:53 PM 82.9 °F 90.2 °F 75.0 °F 77% 30.12 in 10.0 mi Variable 4.6 mph - 0.00 in   Scattered Clouds
1:53 PM 84.9 °F 93.3 °F 75.0 °F 72% 30.11 in 10.0 mi Calm Calm - N/A   Mostly Cloudy
2:53 PM 81.0 °F 87.9 °F 77.0 °F 88% 30.08 in 3.0 mi NW 6.9 mph - 0.09 in Rain Light Rain
2:55 PM 80.6 °F 87.1 °F 77.0 °F 89% 30.08 in 1.8 mi NW 10.4 mph - 0.06 in Rain Rain
3:02 PM 78.8 °F - 75.2 °F 89% 30.08 in 1.2 mi Variable 5.8 mph - 0.08 in Rain Light Rain
3:05 PM 78.8 °F - 75.2 °F 89% 30.08 in 3.0 mi Variable 6.9 mph - 0.08 in Rain Light Rain
3:21 PM 78.8 °F - 73.4 °F 83% 30.11 in 1.2 mi SW 17.3 mph 26.5 mph 0.23 in Rain Light Rain
3:25 PM 75.2 °F - 73.4 °F 94% 30.11 in 0.2 mi SSW 10.4 mph 26.5 mph 0.50 in Fog , Rain Heavy Rain
3:31 PM 75.2 °F - 73.4 °F 94% 30.11 in 0.5 mi WSW 8.1 mph - 0.55 in Fog , Rain Heavy Rain
3:36 PM 73.4 °F - 71.6 °F 94% 30.10 in 2.5 mi Variable 3.5 mph - 0.56 in Rain Light Rain
3:53 PM 75.0 °F - 73.0 °F 94% 30.11 in 7.0 mi WSW 4.6 mph - 0.58 in Rain Light Rain
4:14 PM 75.2 °F - 73.4 °F 94% 30.12 in 1.8 mi SSE 9.2 mph - 0.11 in Rain Heavy Rain
4:28 PM 73.4 °F - 73.4 °F 100% 30.11 in 3.0 mi SSW 3.5 mph - 0.20 in Rain Light Rain
4:53 PM 75.0 °F - 73.0 °F 94% 30.12 in 9.0 mi Calm Calm - 0.22 in Rain Light Rain
5:53 PM 75.9 °F - 73.9 °F 94% 30.09 in 10.0 mi WNW 3.5 mph - 0.10 in Rain Light Rain
6:53 PM 77.0 °F - 75.0 °F 94% 30.07 in 8.0 mi NW 3.5 mph - 0.02 in Rain Light Rain
7:01 PM 75.2 °F - 73.4 °F 94% 30.08 in 6.0 mi Calm Calm - 0.01 in Rain Light Rain
7:04 PM 77.0 °F - 73.4 °F 89% 30.08 in 6.0 mi Calm Calm - 0.01 in Rain Light Rain
7:53 PM 75.9 °F - 73.9 °F 94% 30.09 in 10.0 mi ESE 4.6 mph - 0.03 in Rain Light Rain
8:08 PM 75.2 °F - 73.4 °F 94% 30.10 in 10.0 mi ESE 4.6 mph - 0.00 in Rain Light Rain
8:25 PM 75.2 °F - 73.4 °F 94% 30.10 in 10.0 mi East 4.6 mph - 0.00 in Rain Light Rain
8:35 PM 75.2 °F - 73.4 °F 94% 30.10 in 10.0 mi East 4.6 mph - 0.00 in   Partly Cloudy
8:53 PM 73.9 °F - 73.0 °F 97% 30.11 in 10.0 mi ESE 3.5 mph - 0.01 in   Partly Cloudy
9:53 PM 73.0 °F - 72.0 °F 96% 30.12 in 10.0 mi ESE 6.9 mph - N/A   Partly Cloudy
10:08 PM 73.4 °F - 71.6 °F 94% 30.12 in 10.0 mi SE 8.1 mph - N/A   Mostly Cloudy
10:16 PM 73.4 °F - 71.6 °F 94% 30.13 in 10.0 mi SE 8.1 mph - N/A   Mostly Cloudy
10:46 PM 73.4 °F - 71.6 °F 94% 30.14 in 10.0 mi SE 3.5 mph - N/A   Scattered Clouds
10:53 PM 73.0 °F - 72.0 °F 96% 30.13 in 10.0 mi Calm Calm - N/A   Partly Cloudy
11:53 PM 72.0 °F - 71.1 °F 97% 30.12 in 10.0 mi SE 4.6 mph - N/A   Partly Cloudy